Location: Ferintosh
(52.7647°N, 112.9692°W)
Time: 04:41:26
(UTC+00:00)

S-56A Canister/Altair - All Passes

Search period start: 21 May 2024 00:00
Search period end: 31 May 2024 00:00
Orbit: 638 x 2488 km, 38.9° (Epoch: 20 May)

Date Brightness Start Highest point End Pass type
(mag) Time Alt. Az. Time Alt. Az. Time Alt. Az.
21 May - 13:36:30 10° SSW 13:44:53 23° SSE 13:51:26 10° ESE daylight
21 May - 15:39:44 10° SW 15:48:26 31° S 15:54:41 10° ESE daylight
21 May - 17:44:54 10° WSW 17:51:25 24° SSW 17:56:20 10° SSE daylight
22 May - 13:02:32 10° SSW 13:11:07 22° SSE 13:17:57 10° ESE daylight
22 May - 15:05:26 10° SW 15:14:46 32° S 15:21:30 10° ESE daylight
22 May - 17:10:33 10° WSW 17:17:58 27° SSW 17:23:25 10° SE daylight
22 May - 19:17:51 10° WSW 19:20:06 12° SW 19:22:10 10° SSW daylight
23 May - 12:28:38 10° SSW 12:37:19 21° SSE 12:44:21 10° ESE daylight
23 May - 14:31:08 10° SW 14:41:04 32° S 14:48:15 10° ESE daylight
23 May - 16:36:10 10° WSW 16:44:27 30° SSW 16:50:25 10° SE daylight
23 May - 18:42:47 10° WSW 18:46:48 15° SW 18:50:12 10° S daylight
24 May - 11:54:50 10° S 12:03:29 20° SSE 12:10:40 10° ESE daylight
24 May - 13:56:51 10° SW 14:07:17 32° S 14:14:57 10° ESE daylight
24 May - 16:01:45 10° WSW 16:10:52 33° S 16:17:21 10° SE daylight
24 May - 18:08:04 10° WSW 18:13:27 18° SSW 18:17:46 10° S daylight
25 May - 11:21:08 10° S 11:29:36 19° SSE 11:36:50 10° ESE daylight
25 May - 13:22:34 10° SW 13:33:26 32° SSE 13:41:34 10° ESE daylight
25 May - 15:27:18 10° WSW 15:37:12 35° S 15:44:14 10° SE daylight
25 May - 17:33:26 10° WSW 17:40:02 22° SSW 17:45:06 10° SSE daylight
26 May - 10:47:35 10° S 10:55:43 18° SE 11:02:50 10° ESE daylight
26 May - 12:48:19 10° SW 12:59:32 32° SSE 13:08:07 10° ESE daylight
26 May - 14:52:50 10° WSW 15:03:28 37° S 15:11:03 10° ESE daylight
26 May - 16:58:51 10° WSW 17:06:33 25° SSW 17:12:19 10° SSE daylight
27 May - 10:14:14 10° S 10:21:49 16° SE 10:28:38 10° ESE visible
27 May - 12:14:08 10° SW 12:25:35 32° SSE 12:34:35 10° ESE daylight
27 May - 14:18:22 10° WSW 14:29:39 38° S 14:37:47 10° ESE daylight
27 May - 16:24:16 10° WSW 16:33:00 28° SSW 16:39:25 10° SSE daylight
27 May - 18:34:15 10° SW 18:34:58 10° SW 18:35:38 10° SW daylight
28 May - 09:41:10 10° SSE 09:47:55 15° SE 09:54:10 10° ESE visible
28 May - 11:40:02 10° SSW 11:51:36 31° SSE 12:00:56 10° ESE daylight
28 May - 13:43:54 10° WSW 13:55:45 39° S 14:04:27 10° ESE daylight
28 May - 15:49:41 10° WSW 15:59:23 32° SSW 16:06:25 10° SE daylight
28 May - 17:57:38 10° WSW 18:01:36 13° SW 18:05:01 10° SSW daylight
29 May - 09:08:28 10° SSE 09:14:01 13° SE 09:19:18 10° ESE visible
29 May - 11:06:00 10° SSW 11:17:34 29° SSE 11:27:12 10° E daylight
29 May - 13:09:28 10° WSW 13:21:48 40° S 13:31:03 10° ESE daylight
29 May - 15:15:05 10° WSW 15:25:39 34° SSW 15:33:19 10° SE daylight
29 May - 17:22:24 10° WSW 17:28:10 17° SW 17:32:54 10° S daylight
30 May - 08:36:32 10° SE 08:40:08 11° SE 08:43:40 10° ESE visible
30 May - 10:32:05 10° SSW 10:43:30 28° SSE 10:53:21 10° E daylight
30 May - 12:35:05 10° SW 12:47:47 40° S 12:57:34 10° ESE daylight
30 May - 14:40:29 10° WSW 14:51:52 37° SSW 15:00:08 10° SE daylight
30 May - 16:47:27 10° W 16:54:41 20° SW 17:00:23 10° S daylight
